Temp
-12 -12 -12 -12 -12 -12 -12 -12 -13 -13 -13 -13 -13 -13 -14 -14 -13 -13 -13 -13 -13 -13 -14 -14 -14 -14 -14 -14 -13 -13 -14 -13 -12 -11 -11 -11 -11 -11 -11 -11 -11 -11 -12
-12 -12 -12 -12 -12 -11 -12 -12 -12 -13 -13 -13 -13 -13 -13 -13 -13 -13 -13 -13 -13 -13 -14 -14 -14 -14 -14 -13 -13 -13 -13 -12 -11 -12 -11 -11 -11 -11 -11 -12 -11 -12 -12
-12 -12 -12 -12 -12 -11 -12 -12 -12 -13 -13 -13 -12 -13 -13 -13 -13 -13 -13 -13 -14 -13 -13 -14 -13 -13 -13 -13 -13 -13 -12 -12 -12 -12 -11 -11 -11 -11 -11 -12 -12 -12 -12
-12 -12 -12 -12 -12 -12 -12 -12 -12 -12 -13 -13 -13 -13 -13 -13 -13 -13 -13 -13 -13 -13 -13 -13 -13 -13 -13 -13 -12 -12 -12 -12 -12 -11 -12 -12 -12 -12 -12 -12 -12 -12 -12
-12 -12 -12 -12 -12 -12 -12 -12 -12 -12 -13 -13 -13 -13 -13 -13 -13 -13 -13 -13 -13 -13 -13 -13 -13 -13 -13 -12 -12 -12 -12 -12 -12 -12 -11 -12 -12 -12 -12 -12 -12 -12 -13
-12 -11 -12 -12 -12 -12 -13 -12 -12 -12 -13 -13 -13 -13 -13 -13 -13 -13 -13 -13 -13 -13 -13 -12 -13 -12 -12 -12 -12 -12 -12 -11 -11 -11 -12 -12 -12 -12 -12 -12 -13 -13 -13
-11 -11 -12 -12 -12 -12 -13 -13 -13 -13 -13 -13 -13 -13 -13 -13 -13 -12 -12 -13 -13 -13 -13 -13 -12 -12 -11 -12 -11 -11 -11 -11 -12 -12 -12 -12 -12 -12 -12 -13 -13 -13 -13
-11 -11 -12 -12 -12 -12 -13 -13 -13 -13 -13 -13 -13 -13 -13 -13 -13 -13 -12 -12 -12 -13 -13 -13 -12 -12 -12 -12 -12 -12 -12 -12 -12 -12 -12 -12 -12 -12 -13 -13 -13 -13 -13
-11 -11 -12 -12 -12 -12 -13 -13 -13 -13 -13 -13 -13 -13 -13 -13 -13 -13 -12 -12 -12 -13 -13 -13 -12 -12 -12 -12 -12 -12 -12 -12 -12 -12 -12 -12 -13 -13 -13 -13 -13 -13 -13
-11 -12 -12 -12 -12 -12 -13 -13 -12 -13 -12 -13 -13 -13 -13 -12 -12 -12 -12 -12 -12 -13 -13 -13 -13 -12 -12 -12 -12 -12 -12 -12 -12 -12 -13 -12 -13 -13 -13 -13 -13 -13 -13
-12 -12 -12 -12 -12 -12 -12 -12 -13 -13 -13 -13 -13 -13 -13 -13 -12 -12 -12 -12 -13 -13 -13 -13 -13 -12 -12 -12 -12 -12 -13 -13 -13 -13 -13 -13 -13 -13 -13 -13 -13 -14 -13
-12 -12 -12 -12 -12 -12 -12 -12 -13 -13 -13 -13 -13 -13 -13 -13 -12 -13 -13 -13 -13 -13 -13 -13 -13 -13 -13 -13 -13 -13 -13 -13 -13 -13 -13 -13 -13 -13 -13 -13 -13 -13 -13
-12 -12 -13 -13 -13 -12 -13 -12 -13 -13 -13 -13 -13 -13 -13 -13 -13 -13 -14 -13 -13 -13 -13 -13 -13 -13 -13 -13 -13 -13 -13 -13 -13 -14 -13 -13 -13 -13 -13 -13 -13 -13 -14
-12 -12 -12 -12 -13 -12 -12 -13 -13 -13 -13 -13 -13 -13 -13 -13 -13 -13 -13 -13 -13 -13 -13 -13 -13 -13 -13 -13 -13 -13 -13 -13 -13 -13 -13 -13 -13 -14 -14 -14 -14 -14 -14
-12 -12 -12 -12 -12 -13 -13 -13 -13 -13 -13 -13 -13 -13 -13 -13 -13 -13 -13 -13 -13 -13 -13 -13 -13 -13 -13 -13 -13 -13 -13 -14 -14 -14 -14 -14 -14 -14 -14 -14 -14 -14 -14
-12 -12 -12 -12 -12 -13 -13 -13 -13 -13 -13 -13 -13 -13 -13 -13 -13 -13 -13 -13 -13 -13 -13 -13 -13 -13 -13 -13 -13 -14 -14 -14 -14 -14 -14 -14 -14 -14 -14 -14 -14 -14 -14
-12 -12 -12 -12 -12 -12 -13 -13 -13 -13 -13 -13 -13 -12 -13 -13 -13 -13 -13 -13 -13 -13 -13 -13 -13 -13 -13 -14 -13 -13 -14 -14 -14 -14 -14 -14 -14 -14 -14 -14 -14 -14 -14
-12 -12 -12 -12 -12 -12 -12 -13 -12 -13 -13 -13 -13 -13 -13 -13 -13 -13 -13 -13 -13 -13 -13 -13 -13 -14 -14 -14 -14 -14 -14 -14 -14 -14 -14 -14 -14 -14 -14 -14 -14 -14 -14
-12 -12 -12 -12 -12 -12 -12 -12 -13 -13 -13 -13 -13 -13 -13 -13 -13 -13 -13 -13 -13 -13 -13 -13 -13 -13 -14 -13 -13 -13 -14 -14 -14 -14 -14 -13 -13 -14 -14 -14 -15 -15 -15
-12 -12 -12 -12 -12 -12 -12 -12 -13 -13 -13 -13 -13 -13 -13 -13 -13 -14 -14 -14 -13 -13 -13 -13 -13 -13 -13 -13 -13 -14 -14 -14 -14 -14 -14 -14 -15 -15 -14 -15 -15 -15 -15
-12 -12 -11 -11 -12 -12 -12 -12 -12 -13 -13 -13 -13 -13 -13 -13 -13 -14 -14 -14 -14 -13 -13 -13 -13 -14 -14 -14 -14 -14 -14 -14 -14 -14 -14 -14 -14 -14 -15 -14 -15 -15 -15
-12 -12 -12 -12 -12 -12 -12 -12 -12 -12 -13 -13 -13 -13 -13 -13 -13 -13 -14 -13 -13 -13 -13 -13 -13 -14 -14 -14 -14 -14 -14 -14 -14 -14 -14 -14 -14 -14 -15 -15 -15 -14 -15
-13 -13 -12 -12 -12 -12 -12 -12 -12 -12 -12 -13 -13 -13 -13 -13 -13 -13 -13 -13 -13 -13 -13 -13 -14 -14 -14 -14 -14 -14 -14 -14 -14 -15 -15 -15 -15 -15 -15 -15 -15 -15 -15
-14 -13 -13 -13 -12 -12 -12 -12 -12 -13 -13 -13 -12 -13 -13 -13 -14 -14 -14 -13 -13 -13 -13 -14 -14 -14 -14 -13 -14 -14 -14 -14 -14 -15 -15 -15 -15 -15 -15 -15 -15 -15 -16
-14 -14 -13 -13 -13 -13 -13 -13 -13 -13 -12 -13 -13 -13 -13 -13 -13 -13 -13 -13 -13 -13 -13 -13 -13 -14 -14 -13 -14 -14 -14 -14 -14 -14 -14 -14 -14 -15 -15 -15 -15 -16 -15
-13 -13 -13 -13 -13 -13 -13 -13 -13 -13 -13 -13 -13 -13 -13 -13 -13 -13 -13 -13 -13 -13 -13 -13 -13 -13 -13 -13 -14 -14 -14 -14 -14 -14 -14 -14 -15 -15 -15 -16 -16 -16 -16
Height
5723 5720 5716 5713 5709 5706 5704 5703 5701 5700 5699 5697 5697 5698 5697 5698 5698 5698 5699 5699 5698 5697 5699 5700 5701 5706 5710 5714 5719 5720 5722 5724 5728 5735 5742 5747 5752 5757 5761 5763 5769 5774 5778
5720 5717 5715 5711 5708 5705 5705 5703 5703 5701 5699 5698 5699 5701 5701 5701 5701 5702 5702 5703 5702 5700 5701 5703 5703 5708 5712 5717 5722 5723 5727 5727 5731 5738 5745 5749 5754 5757 5761 5765 5770 5775 5778
5719 5717 5713 5711 5708 5706 5706 5704 5704 5703 5701 5700 5701 5703 5704 5704 5704 5704 5705 5706 5706 5704 5706 5706 5707 5712 5715 5720 5722 5727 5729 5733 5737 5742 5748 5753 5757 5762 5766 5770 5773 5776 5779
5718 5716 5714 5711 5709 5708 5707 5706 5705 5704 5703 5703 5703 5704 5705 5707 5707 5708 5709 5710 5709 5709 5709 5710 5712 5715 5719 5722 5725 5729 5734 5739 5742 5746 5750 5755 5760 5763 5767 5771 5774 5777 5780
5717 5716 5713 5711 5710 5709 5708 5708 5706 5705 5705 5704 5705 5706 5708 5709 5710 5711 5712 5713 5713 5713 5714 5716 5717 5719 5723 5727 5730 5734 5738 5742 5746 5751 5754 5759 5762 5767 5769 5772 5775 5778 5782
5718 5717 5714 5712 5711 5710 5709 5709 5707 5707 5707 5707 5707 5708 5709 5711 5712 5714 5716 5717 5718 5718 5719 5720 5721 5724 5727 5731 5735 5739 5742 5746 5749 5755 5758 5762 5766 5768 5771 5774 5777 5779 5781
5719 5717 5715 5713 5712 5711 5710 5709 5708 5708 5708 5708 5708 5709 5711 5712 5715 5717 5719 5721 5722 5723 5724 5725 5726 5727 5731 5735 5738 5741 5747 5750 5754 5757 5761 5764 5767 5770 5773 5775 5777 5779 5782
5721 5719 5717 5714 5714 5713 5712 5711 5710 5709 5709 5708 5708 5710 5712 5714 5717 5719 5722 5724 5725 5726 5728 5730 5731 5733 5736 5739 5741 5744 5748 5752 5755 5759 5762 5765 5768 5771 5773 5775 5777 5780 5781
5723 5722 5720 5717 5716 5717 5715 5714 5713 5712 5710 5710 5710 5712 5713 5715 5719 5722 5725 5727 5729 5731 5732 5733 5735 5738 5740 5743 5746 5749 5751 5754 5757 5759 5763 5767 5770 5772 5774 5777 5778 5779 5781
5725 5724 5724 5722 5721 5720 5719 5718 5717 5716 5715 5714 5713 5714 5716 5718 5721 5724 5727 5729 5731 5734 5736 5738 5739 5742 5745 5747 5750 5753 5755 5758 5760 5763 5765 5767 5771 5773 5775 5777 5778 5780 5780
5727 5726 5727 5726 5725 5725 5724 5723 5723 5722 5721 5721 5720 5720 5720 5722 5724 5726 5729 5731 5734 5736 5738 5740 5742 5745 5748 5751 5753 5756 5759 5761 5764 5766 5767 5769 5771 5772 5775 5777 5778 5776 5777
5729 5728 5729 5729 5729 5728 5729 5728 5728 5728 5728 5727 5727 5726 5726 5727 5728 5729 5731 5734 5738 5741 5742 5744 5745 5749 5751 5754 5756 5759 5762 5764 5766 5768 5770 5771 5772 5774 5776 5777 5776 5776 5775
5730 5730 5730 5732 5732 5732 5732 5732 5732 5733 5733 5734 5734 5734 5734 5735 5736 5736 5737 5741 5744 5746 5747 5749 5751 5754 5756 5757 5760 5762 5764 5766 5768 5770 5771 5772 5773 5774 5774 5773 5773 5772 5771
5730 5731 5732 5733 5734 5734 5734 5736 5737 5737 5738 5738 5739 5740 5741 5742 5743 5744 5746 5747 5748 5750 5752 5754 5756 5758 5760 5762 5763 5765 5766 5767 5769 5770 5771 5772 5772 5771 5771 5770 5769 5768 5768
5731 5732 5733 5734 5736 5737 5738 5739 5740 5741 5742 5743 5744 5745 5746 5747 5749 5750 5751 5753 5754 5755 5756 5757 5759 5760 5762 5763 5764 5765 5766 5767 5768 5768 5768 5768 5768 5768 5768 5767 5767 5765 5763
5730 5731 5733 5734 5736 5738 5740 5741 5742 5744 5745 5747 5748 5749 5750 5751 5752 5753 5755 5756 5756 5757 5758 5759 5760 5761 5762 5763 5764 5765 5766 5766 5767 5767 5767 5767 5767 5766 5765 5764 5762 5760 5758
5729 5731 5732 5734 5735 5737 5740 5742 5743 5745 5746 5748 5750 5752 5753 5754 5755 5755 5756 5757 5758 5759 5760 5760 5761 5761 5762 5762 5763 5764 5764 5764 5764 5764 5764 5764 5763 5762 5761 5759 5757 5756 5752
5727 5729 5731 5732 5734 5736 5738 5740 5742 5744 5746 5747 5749 5751 5753 5754 5754 5755 5756 5757 5758 5758 5759 5759 5760 5760 5760 5761 5761 5762 5761 5761 5760 5760 5759 5759 5758 5757 5755 5753 5751 5749 5745
5724 5726 5728 5730 5731 5733 5735 5738 5740 5743 5745 5747 5748 5750 5752 5753 5753 5754 5754 5754 5754 5755 5756 5757 5757 5757 5758 5759 5759 5759 5758 5757 5756 5756 5755 5754 5753 5752 5749 5746 5744 5742 5738
5721 5722 5724 5726 5728 5730 5732 5734 5737 5739 5742 5744 5745 5747 5749 5750 5751 5752 5752 5752 5752 5752 5752 5753 5754 5755 5755 5755 5755 5755 5754 5753 5752 5751 5750 5749 5747 5745 5743 5740 5737 5733 5728
5717 5719 5720 5721 5723 5725 5727 5729 5731 5734 5737 5739 5741 5743 5745 5746 5748 5748 5749 5749 5749 5749 5750 5751 5752 5752 5752 5752 5751 5750 5750 5749 5747 5746 5744 5743 5741 5739 5736 5733 5729 5725 5721
5711 5713 5715 5718 5719 5720 5722 5724 5726 5729 5732 5734 5735 5737 5739 5740 5742 5743 5743 5744 5745 5745 5746 5747 5747 5747 5747 5746 5745 5744 5743 5742 5741 5739 5738 5736 5734 5731 5728 5725 5721 5717 5713
5704 5706 5709 5711 5714 5715 5717 5718 5721 5723 5724 5726 5728 5730 5732 5734 5735 5736 5737 5738 5739 5740 5741 5742 5742 5742 5741 5740 5740 5739 5737 5735 5734 5732 5730 5728 5726 5724 5721 5717 5713 5708 5704
5695 5699 5701 5703 5706 5708 5711 5713 5715 5717 5718 5720 5721 5722 5724 5726 5727 5728 5730 5731 5732 5732 5733 5734 5734 5735 5733 5732 5732 5732 5731 5728 5726 5724 5721 5721 5718 5715 5712 5709 5704 5700 5696
5686 5689 5693 5696 5697 5700 5702 5704 5706 5709 5712 5713 5714 5716 5716 5718 5719 5721 5722 5723 5724 5725 5726 5726 5727 5726 5727 5726 5725 5724 5723 5722 5719 5717 5714 5710 5708 5705 5702 5699 5695 5690 5684
5675 5677 5681 5685 5688 5690 5693 5695 5696 5698 5701 5703 5705 5706 5707 5708 5709 5710 5711 5713 5715 5717 5717 5718 5719 5718 5718 5717 5716 5714 5714 5712 5710 5707 5703 5701 5699 5695 5692 5688 5684 5681 5674
Wind_Speed
10 11 11 15 11 14 9 5 5 4 3 8 10 10 13 14 13 11 9 7 8 10 10 11 16 23 24 27 27 26 25 27 21 25 27 22 18 22 20 19 22 23 20
9 9 10 10 9 12 7 7 7 5 4 12 14 10 11 12 10 10 8 9 10 8 9 10 15 24 26 25 22 22 23 11 32 32 28 20 18 14 13 18 21 20 18
8 6 8 8 10 8 7 8 8 6 8 11 17 15 9 11 12 12 12 10 8 8 10 11 18 24 23 24 18 16 13 19 24 23 25 21 16 17 19 19 14 14 20
5 5 5 9 7 9 7 7 9 10 9 11 13 12 11 14 14 13 13 12 13 14 15 19 18 25 21 20 19 20 19 16 18 23 23 20 18 13 13 10 9 9 13
5 2 3 7 6 6 6 5 6 9 11 10 11 9 12 17 14 12 14 12 12 14 15 15 17 22 24 24 18 14 10 15 19 19 22 19 15 13 9 6 7 10 11
5 3 5 5 6 6 6 6 4 6 8 10 10 11 13 16 14 12 12 13 13 13 13 11 13 19 23 19 19 17 13 16 18 17 18 17 16 12 7 3 8 12 11
6 7 9 9 9 11 10 5 6 8 6 8 10 11 14 16 15 12 12 11 12 13 12 13 15 15 21 15 10 12 15 10 11 11 12 11 12 8 6 11 10 9 8
7 8 9 10 11 11 12 11 11 8 4 8 11 11 13 14 15 14 13 10 10 9 9 11 15 18 17 16 11 12 16 11 12 14 13 12 11 9 11 9 7 7 5
9 9 10 14 14 13 14 13 12 9 8 8 9 11 14 14 13 14 13 11 9 9 10 12 14 15 17 17 13 12 13 14 18 17 14 12 10 7 8 7 6 5 5
8 11 10 12 16 16 17 16 18 20 20 22 19 16 15 14 12 13 14 12 8 12 10 10 10 15 16 12 12 14 14 15 16 13 14 13 11 10 8 5 5 6 6
8 11 11 11 13 14 16 19 19 18 20 21 22 24 21 17 14 14 14 13 13 10 12 12 14 12 14 14 16 15 16 17 16 12 9 8 7 5 5 6 8 8 11
8 11 10 9 10 12 14 16 20 18 21 20 24 24 23 24 22 22 21 18 20 19 17 16 22 19 17 15 15 17 16 14 12 10 8 6 6 7 9 11 13 15 15
7 8 10 9 9 8 9 12 16 17 18 20 23 24 25 28 29 31 29 29 22 22 21 21 21 19 19 17 16 16 15 14 11 7 6 7 9 10 13 15 17 18 18
7 6 6 8 9 9 10 11 14 15 15 16 18 18 18 18 19 19 18 18 18 16 15 14 14 13 12 11 10 10 9 7 8 9 10 11 13 14 15 16 17 18 19
7 7 6 6 8 9 11 12 14 17 18 20 22 22 22 22 21 20 18 17 16 16 15 13 12 10 8 7 6 5 5 6 7 8 10 11 13 14 15 15 15 17 20
8 8 9 7 7 10 11 12 15 16 17 17 18 18 17 16 14 13 13 11 9 9 8 7 6 4 3 2 2 3 5 6 8 9 10 12 13 15 16 17 17 19 21
10 10 10 11 10 10 13 13 13 14 15 14 11 9 9 9 7 6 6 7 8 2 2 1 1 3 5 4 4 4 7 7 10 11 12 14 15 17 19 20 18 20 24
10 10 13 14 14 13 13 14 14 14 13 11 8 7 7 5 3 4 7 7 7 5 3 4 5 7 7 7 7 8 8 12 11 10 9 12 15 19 22 25 24 26 30
14 13 14 16 16 16 16 15 15 16 15 14 13 12 11 10 10 10 12 12 11 10 6 6 6 4 5 7 9 12 13 16 14 11 13 14 13 23 24 26 27 31 33
17 16 17 17 20 20 19 19 18 17 17 17 17 16 15 15 16 16 16 16 16 13 10 9 8 6 9 12 13 14 14 16 18 19 21 24 26 25 27 30 31 35 33
18 20 21 21 19 20 21 22 23 22 20 19 19 18 18 18 18 18 19 19 18 15 13 12 11 12 15 16 18 18 19 20 22 22 23 23 24 28 31 33 37 36 40
23 22 21 22 24 23 22 23 25 24 22 22 22 21 22 20 20 20 20 19 19 18 18 16 17 19 22 22 20 20 20 20 20 20 22 24 25 28 32 34 35 41 43
24 25 24 24 24 26 27 28 27 26 26 25 25 25 24 24 24 21 20 21 21 22 23 24 25 26 24 23 20 18 16 17 19 22 25 29 30 32 33 34 38 40 43
30 28 29 28 27 27 28 28 28 29 30 28 27 26 26 27 26 27 27 26 26 26 28 29 28 27 23 19 19 19 20 23 24 26 29 31 33 32 34 39 42 44 45
33 33 32 29 29 30 33 34 32 31 30 30 28 27 27 28 29 28 28 28 26 23 22 23 24 23 23 24 25 26 26 27 29 31 31 33 35 37 39 40 42 46 47
35 37 35 36 37 39 40 40 40 39 36 33 31 30 29 28 27 28 27 27 26 25 21 20 22 24 27 29 31 32 32 32 32 33 34 34 34 39 42 44 48 49 47
Wind_Direction
340 334 341 340 359 3 12 49 58 47 105 129 126 147 141 128 132 135 125 103 90 99 122 146 169 168 170 170 172 183 188 188 173 174 170 174 165 176 177 179 184 193 185
344 342 349 1 11 18 49 62 70 84 107 136 135 142 137 131 138 127 122 113 115 113 118 137 159 162 166 174 181 187 188 131 161 163 185 174 158 160 171 180 184 176 183
355 357 17 27 45 52 63 74 79 97 97 130 133 143 134 139 132 130 116 116 121 103 114 123 151 157 168 175 181 170 154 145 155 164 164 169 171 161 156 145 153 167 182
13 343 62 37 53 62 58 77 82 92 100 111 141 147 146 140 128 119 115 110 97 118 111 125 153 160 156 162 159 144 156 149 146 155 158 155 168 145 145 160 178 171 184
355 10 90 45 48 46 58 80 88 91 102 119 123 154 149 148 134 130 126 115 97 112 117 116 143 167 155 155 153 142 128 150 139 147 161 171 174 168 169 164 167 160 180
65 37 41 37 44 63 67 79 85 112 103 107 123 138 164 166 156 149 137 122 110 99 114 117 142 157 171 172 165 160 145 139 146 135 142 153 162 164 141 125 161 166 178
72 55 44 48 76 69 91 88 90 127 112 127 126 133 150 169 163 155 148 126 117 109 95 109 132 154 171 167 185 191 163 147 154 146 172 171 184 203 212 158 158 143 146
75 57 53 67 89 73 87 90 98 104 148 179 142 146 153 159 167 163 154 137 118 110 93 106 103 136 158 166 145 160 178 178 173 165 159 165 179 183 159 142 139 154 162
66 73 73 78 92 94 85 86 87 83 75 94 111 145 147 151 163 165 155 152 145 117 108 110 109 119 127 146 137 163 152 148 146 144 147 152 167 159 134 151 163 168 206
75 85 84 84 84 84 85 95 96 92 88 90 95 127 130 127 144 160 161 156 147 132 132 136 126 141 136 147 157 153 157 151 155 152 145 141 141 139 143 168 205 231 252
89 90 90 85 83 85 91 97 98 97 96 96 88 95 109 116 134 143 154 159 151 151 147 141 131 140 148 141 146 149 142 137 132 128 131 142 149 166 205 236 252 267 271
106 101 95 88 83 80 91 106 104 96 96 100 98 93 104 105 113 116 120 119 126 132 126 131 119 117 122 133 131 122 115 122 132 149 168 184 204 225 239 257 267 269 278
118 99 99 89 86 92 94 107 117 114 109 107 106 105 101 98 95 98 109 107 111 107 110 116 121 126 129 132 136 143 151 161 173 192 219 239 248 256 262 268 278 286 292
144 119 97 102 93 100 106 118 118 121 120 116 114 114 112 110 107 107 109 112 116 116 114 115 119 123 129 139 156 167 174 190 208 221 227 234 246 257 269 282 293 301 304
164 162 140 127 117 118 121 123 125 125 125 123 118 114 112 109 108 107 107 108 110 113 118 122 125 130 139 153 168 185 203 226 240 246 251 258 266 274 282 292 300 303 304
181 178 180 166 155 146 151 145 142 142 140 135 130 127 121 110 100 94 89 92 107 115 116 117 122 128 146 195 253 281 290 287 279 271 267 269 276 283 291 296 302 309 322
225 206 190 187 186 179 176 179 171 166 163 159 155 152 142 132 115 91 64 54 56 122 120 91 351 278 261 278 300 336 336 328 302 285 279 280 289 297 301 303 298 305 310
223 231 222 205 197 200 198 201 202 194 195 198 197 205 201 203 251 318 339 343 349 354 285 290 295 275 268 278 274 298 325 325 313 334 320 308 308 308 301 299 291 301 309
229 227 225 225 220 210 211 212 217 220 216 215 220 228 235 242 260 284 298 305 307 308 289 278 306 318 281 277 287 300 309 308 308 301 300 298 300 320 316 311 300 299 300
239 238 238 231 229 228 222 218 222 229 230 228 226 227 233 241 251 261 274 282 286 282 276 280 276 300 317 308 302 305 292 308 307 293 298 295 298 302 316 312 302 309 313
247 246 245 240 237 235 232 228 224 226 233 238 240 239 243 249 257 264 269 271 269 263 267 276 261 289 306 304 299 298 299 297 301 301 300 302 305 305 312 312 316 321 318
252 253 254 249 241 241 239 234 231 231 233 239 246 247 249 253 261 267 267 265 263 266 268 273 274 285 297 298 291 290 294 297 296 301 303 301 300 302 306 310 317 315 316
248 250 253 258 253 247 245 243 239 237 239 241 248 253 256 258 257 259 262 266 271 277 277 280 286 290 291 294 293 290 290 291 290 292 291 293 298 305 307 309 310 308 314
248 248 247 253 258 252 248 244 241 243 245 247 247 249 253 254 255 260 261 261 267 273 277 280 284 285 286 283 284 287 287 287 290 294 294 301 302 304 308 308 309 306 313
242 247 251 247 250 250 248 248 250 248 246 244 247 250 252 253 254 255 261 267 271 271 274 280 279 280 281 283 283 285 288 292 293 296 298 299 304 307 305 307 301 306 316
239 238 244 247 246 249 251 246 247 248 246 245 246 245 247 248 250 253 255 255 262 262 260 265 270 275 278 280 283 285 288 289 293 296 299 303 307 306 305 306 307 310 310